Location: Ariel
(45.9570°N, 122.5700°W)
Time: 15:35:31
(UTC-08:00)

Transit 4A - Pass Details

Date: 05 November 2020
Orbit: 862 x 982 km, 66.8° (Epoch: 03 December)

Event Time Altitude Azimuth Distance (km) Brightness Sun altitude
Rises 20:48:56 0° 329° (NNW) 3,696 11.6 -41.4°
Reaches altitude 10° 20:51:45 10° 338° (NNW) 2,743 10.7 -41.9°
Enters shadow 20:53:05 16° 344° (NNW) 2,328 10.2 -42.1°
